星链-4507 (STARLINK-4507 )

导读

STARLINK-4507是美国太空探索技术公司Starlink星链互联网卫星星座的成员,于2022年8月10日在美国发射升空。星链项目旨在通过近地轨道卫星群,为全球提供高速互联网接入服务,这颗卫星承担了扩展星链网络覆盖范围、提升星座服务容量的任务,运行在近地轨道,服务全球互联网络的部署。

基本信息
目录编号:
53403
目录名称:
STARLINK-4507
国际标识:
2022-097R
轨道中心:
EARTH
卫星名称:
星链-4507
卫星全名:
星链-4507 (STARLINK-4507 )
卫星状态:
在轨 (已飞行1486 天)
发射日期:
2022-08-10 UTC
国别 :
美国 (US)
星等 :
--
轨道信息
数据来源 国际轨道数据
星历时间: 2026-09-04T00:48:09+0800
1天前
查看轨道信息
半长轴: 6848.862km
偏心率: 0.0001077
轨道倾角: 53.162°
近地点辐角 87.916°
升交点赤经 37.118°
平近点角 272.197°
近地点: 469.987km
远地点: 471.463km
周期: 94.013分钟
每日圈数: 15.317053
详细信息
固有亮度:
5
最大亮度:
2.5
卫星平台:
Starlink v1.5
覆盖范围:
全球
运营商:
太空探索技术公司
运营商所在国:
美国
制造商(研发单位):
太空探索技术公司
制造商所在国:
美国
使用方式:
暂无
卫星简介
星链(Starlink)计划是由太空探索技术公司(SpaceX)提出的一个巨型低轨卫星互联网星座项目,计划在2019年至2024年间在太空搭建由约1.2万颗卫星组成的“星链”网络,其中1584颗将部署在地球上空550千米处的近地轨道,并从2020年开始工作。该卫星仍在工作。
2D轨道图
3D轨道图
轨道高度分析图
轨道倾角分析图
轨道综合分析图
查看轨道综合分析图
交会数据列表
事件ID 空间交会对象 最接近时刻(TCA) 交会距离 交会风险概率(CRP) 交会风险指数(CRI) 操作
CDM_260906-013504-742405-340321
OBJECT M (47424)
2026-09-06T
01:35:11+0000
1.125 km
极远距离
1.50143E-5 中风险 0.59
CDM_260906-210805-340306-934121
2026-09-06T
21:08:04+0000
2.544 km
极远距离
1.511782E-6 低风险 0.39
CDM_260903-074305-340306-934221
2026-09-03T
07:43:48+0000
2.993 km
极远距离
1.263579E-6 低风险 0.37
CDM_260906-144905-340306-485721
2026-09-06T
14:49:14+0000
2.814 km
极远距离
1.174203E-6 低风险 0.36